Other Public Products
Issued by NWS Grand Forks, ND

Home | Current Version | Previous Version | Text Only | Print | Product List | Glossary Off
Versions: 1 2 3 4 5 6 7 8 9 10 11 12 13 14 15 16 17 18 19 20 21 22 23 24 25 26 27 28 29 30 31 32 33 34 35 36 37 38 39 40 41 42 43 44 45 46 47 48 49 50

460
FPUS83 KFGF 260331
OPUFGF
PRAIRIE TO PINES WEATHER ROUNDUP
NATIONAL WEATHER SERVICE EASTERN NORTH DAKOTA/GRAND FORKS ND
1000 PM CDT TUE JUL 25 2017

 **SATELLITE DATA USED TO AUGMENT SKY COVER AT AUTOMATED STATIONS**
 *****  WEATHER ACROSS EASTERN NORTH DAKOTA  *****

CITY           SKY/WX    TMP DP  RH WIND       PRES   REMARKS
GRAND FORKS    FAIR      69  60  73 NW5       29.94R
GRAND FORKS AF FAIR      67  58  73 NW5       29.95R
GRAND CITY NWS NOT AVBL
BUXTON           N/A     71  64  77 N2          N/A
DEVILS LAKE    FAIR      69  60  73 CALM      29.99R
FARGO          FAIR      74  70  87 N7        29.95R
WAHPETON ARPT  FAIR      70  68  94 CALM      29.98R
$$

 *****  WEATHER ACROSS CENTRAL AND WESTERN NORTH DAKOTA  *****

CITY           SKY/WX    TMP DP  RH WIND       PRES   REMARKS
JAMESTOWN      FAIR      68  58  70 NE5       29.97R
BISMARCK       FAIR      78  53  41 N5        29.99R
MINOT          FAIR      69  54  58 NW7       30.00R
MINOT AFB      FAIR      68  55  62 NW7       29.98S
GARRISON         N/A     69  51  52 N8        30.00R
WILLISTON      FAIR      76  43  30 N9        30.03S
DICKINSON      FAIR      76  47  35 N6        30.03S
HETTINGER      FAIR      71  56  58 CALM      30.06R
$$

 *****  OTHER OBSERVATIONS NORTHEAST NORTH DAKOTA  *****

CITY           SKY/WX    TMP DP  RH WIND       PRES   REMARKS
WALHALLA       NOT AVBL
LANGDON        FAIR      61  61 100 W8        29.97R
CAVALIER       FAIR      66  59  77 W5        29.93R
GRAFTON        FAIR      70  59  68 W7        29.95S
CANDO          NOT AVBL
FORT TOTTEN      N/A     69  60  73 NE2       29.95S
ROLLA            N/A     59  59 100 W8        30.00R
RUGBY          NOT AVBL
 ***** THE ABOVE OBSERVATIONS ARE NON NWS ARE NOT QUALITY
        CONTROLLED AND MAY MIS-REPORT RAIN FOR SNOW...
$$

 *****  OTHER OBSERVATIONS SOUTHEAST NORTH DAKOTA *****

CITY           SKY/WX    TMP DP  RH WIND       PRES   REMARKS
COOPERSTOWN    FAIR      68  61  77 CALM      29.99R
VALLEY CITY    FAIR      70  61  73 N6        30.00R
OAKES          NOT AVBL
GWINNER        CLEAR     72  64  78 CALM      29.99R
BUFFALO          N/A     71  58  64 S2          N/A
WYNDMERE       NOT AVBL
 ***** THE ABOVE OBSERVATIONS ARE NON NWS ARE NOT QUALITY
       CONTROLLED AND MAY MIS-REPORT RAIN FOR SNOW...
$$

  *****  WEATHER ACROSS NORTHERN MINNESOTA  *****

CITY           SKY/WX    TMP DP  RH WIND       PRES   REMARKS
FLAG ISLAND    FAIR      70  57  64 W7        29.88R
WARROAD        FAIR      66  61  82 SW6       29.92R
ROSEAU         FAIR      68  61  77 W7        29.92R
HALLOCK        FAIR      64  61  88 W6        29.92R
THF RVR FALLS  FAIR      68  59  73 NW7       29.95R
HALSTAD          N/A     69  61  74 NW5         N/A
FOSSTON        FAIR      66  59  77 W7        29.96R
BAUDETTE       FAIR      67  58  72 W7        29.90R
WASKISH        FAIR      72  61  68 NW7       29.92R
CROOKSTON      FAIR      66  61  82 NW7       29.95S
$$
  *****  WEATHER ACROSS CENTRAL AND WEST MINNESOTA  *****

CITY           SKY/WX    TMP DP  RH WIND       PRES   REMARKS
BEMIDJI        MOCLDY    71  67  90 W10       29.95R
PARK RAPIDS    FAIR      69  66  90 W5        29.95R
WADENA         FAIR      70  68  94 S6        29.97S
DETROIT LAKES  FAIR      70  68  94 CALM      29.98S
MOORHEAD       FAIR      70  66  88 NW5       29.97R
FERGUS FALLS   FAIR      72  72 100 S6        29.98R
ELBOW LAKE     MOCLDY    72  71  98 CALM      29.99R
MORRIS MN      FAIR      73  70  88 SW6       29.98R
STAPLES        FAIR      70  66  88 NW3       29.97R
WHEATON        MOCLDY    73  70  88 N6        29.98S
$$
  *****  WEATHER ELSEWHERE ACROSS MINNESOTA  *****

CITY           SKY/WX    TMP DP  RH WIND       PRES   REMARKS
DULUTH         FAIR      68  66  93 SW5       29.94F
INTRNTL FALLS  FAIR      66  62  87 W7        29.88R
ELY            CLOUDY    68  66  94 SW7       29.92F
CLOQUET        FAIR      70  64  83 CALM      29.93F
BRAINERD       FAIR      72  69  90 CALM      29.95R
HIBBING        MOCLDY    68  68 100 CALM      29.93F
ALEXANDRIA     CLOUDY    70  67  90 CALM      29.99F
SAINT CLOUD    MOCLDY    73  71  93 SW3       29.94R
MINNEAPOLIS    CLOUDY    80  72  76 SW12G23   29.92R
$$

  *****  WEATHER ACROSS SOUTH DAKOTA  *****

CITY           SKY/WX    TMP DP  RH WIND       PRES   REMARKS
SIOUX FALLS    CLOUDY    80  71  74 NE14      29.96R
BROOKINGS      LGT RAIN  72  68  88 SE16      29.96S
WATERTOWN      FAIR      74  67  78 S8        29.97R
HURON          LGT RAIN  74  69  85 SE12      30.00R
SISSETON         N/A     74  72  93 CALM      29.96R
ABERDEEN       FAIR      77  71  82 NE10      29.97R
MITCHELL       TSTM      71  70  96 NE12      30.02F FOG
PIERRE         FAIR      79  65  62 NE17      29.97R
MOBRIDGE       FAIR      74  59  59 NE7       29.98R
RAPID CITY     FAIR      75  55  49 N16       30.08R
$$

  *****  SOME WEATHER IN NEARBY STATES *****

CITY           SKY/WX    TMP DP  RH WIND       PRES   REMARKS
GLASGOW MT     FAIR      77  44  30 NW3       30.05S
GREAT FALLS MT FAIR      76  38  25 NE14      30.04R
CHEYENNE WY    MOCLDY    68  54  60 NW10      30.23R
SCOTTSBLUFF NE LGT RAIN  82  58  43 N12G23    30.03R
OMAHA NE       MOCLDY    86  73  65 SE16      29.95R HX  93
DES MOINES IA  MOCLDY    84  72  67 SE8       30.01R
DAVENPORT IA   FAIR      72  67  84 SE7       30.11S
CHICAGO IL     FAIR      71  58  63 S8        30.15R
EAU CLAIRE WI  FAIR      73  66  78 SE8       29.96F
LA CROSSE WI   FAIR      77  70  79 SE7       30.01F
$$

  *****  SOME NATIONAL WEATHER *****

CITY           SKY/WX    TMP DP  RH WIND       PRES   REMARKS
LA GUARDIA NY  CLOUDY    68  60  75 NE8       30.21S
RALEIGH NC     FAIR      76  68  76 NE7       30.12R
ATLANTA GA     MOCLDY    77  72  84 CALM      30.13R
NEW ORLEANS LA FAIR      82  74  76 S3        30.11R
OKLAHOMA CITY  FAIR      85  72  65 S12       30.02R HX  91
ALBUQUERQUE NM MOCLDY    82  57  42 NW9       30.19R
SALT LAKE CITY MOCLDY    81  59  47 S10       30.06R
LOS ANGELES CA FAIR      69  63  81 W13       29.96S
BOISE ID       FAIR      88  48  25 NW8       29.92S
SEATTLE WA     FAIR      81  49  32 N7        29.99S
$$

*** WEATHER ACROSS MANITOBA...SASKATCHEWAN AND ONTARIO ***
                ***ONTARIO***

CITY           SKY/WX    TMP DP  RH WIND       PRES   REMARKS
GERALDTON      CLOUDY    64  50  59 S10G17    29.85F THUNDER
THUNDER BAY    CLOUDY    72  61  68 SW13      29.88F
SIOUX LOOKOUT  PTCLDY    68  57  68 W8        29.81R
TORONTO        CLEAR     64  55  72 S5        30.22S
BIG TROUT LK   PTCLDY    63  63 100 SW8       29.60R
PICKLE LAKE    NOT AVBL
DRYDEN         CLEAR     66  57  72 W8        29.84R
KENORA         PTCLDY    66  57  72 W6        29.86R
$$
                *** MANITOBA***

CITY           SKY/WX    TMP DP  RH WIND       PRES   REMARKS
BRANDON        PTCLDY    61  57  88 W9        29.95R
DAUPHIN        MOCLDY    66  61  82 W9        29.90R
ISLAND LAKE    NOT AVBL
PILOT MOUND      N/A     63  55  77 W7          N/A
THE PAS        PTCLDY    66  59  77 W8        29.87R
THOMPSON       MOCLDY    64  59  82 W7        29.73R
WINNIPEG       PTCLDY    64  61  88 W8        29.88R
LYNN LAKE      MOCLDY    68  55  64 NW6       29.81R
CHURCHILL      FOG       50  48  93 VRB2      29.65R VSB 1/8
GILLAM         CLOUDY    61  59  94 N12       29.64R
$$
                ***SASKATCHEWAN***

CITY           SKY/WX    TMP DP  RH WIND       PRES   REMARKS
ESTEVAN        PTCLDY    64  55  72 NW3       30.03R
KINDERSLEY     PTCLDY    63  54  72 E7        30.07R
LLOYDMINSTER   PTCLDY    66  54  63 W2        30.05S
PRINCE ALBERT  PTCLDY    63  54  72 W6        30.01R
REGINA         PTCLDY    66  52  59 NW6       30.04R
YORKTON        CLEAR     63  59  88 W8        30.00R
N. BATTLEFORD  CLEAR     64  55  72 NW2       30.06S



USA.gov is the U.S. government's official web portal to all federal, state and local government web resources and services.